"read_dt","SO2 (ppb)","flags","PMT voltage (V)","lamp voltage (V)","lamp intensity (Hz)","internal temp (C)","react chamber temp (C)","sample flow (l/min)","pres (mmHg)","SO2 bkg (ppb)","SO2 coefficient"
2016-03-26 00:00:00,1819E-3,5C000400,-0724,0834,12339,024.2,045.3,0.262,756.7,01.16,0.508
2016-03-26 00:01:00,1808E-3,5C000400,-0724,0834,12217,024.2,045.3,0.262,756.7,01.16,0.508
2016-03-26 00:02:00,1724E-3,5C000400,-0724,0835,12074,024.2,045.3,0.262,756.7,01.16,0.508
2016-03-26 00:03:00,1983E-3,5C000400,-0724,0835,12143,024.2,045.3,0.262,756.7,01.16,0.508
2016-03-26 00:04:00,1818E-3,5C000400,-0724,0834,12264,024.2,045.3,0.262,756.7,01.16,0.508
2016-03-26 00:05:00,1781E-3,5C000400,-0724,0835,12242,024.2,045.3,0.262,756.7,01.16,0.508
2016-03-26 00:06:00,1839E-3,5C000400,-0724,0835,12129,024.2,045.3,0.262,756.7,01.16,0.508
2016-03-26 00:07:00,1945E-3,5C000400,-0724,0834,12279,024.2,045.3,0.262,756.7,01.16,0.508
2016-03-26 00:08:00,1908E-3,5C000400,-0724,0834,12112,024.2,045.3,0.262,756.6,01.16,0.508
2016-03-26 00:09:00,1847E-3,5C000400,-0724,0834,12068,024.3,045.3,0.262,756.6,01.16,0.508
2016-03-26 00:10:00,1926E-3,5C000400,-0724,0834,12145,024.2,045.3,0.262,756.6,01.16,0.508
2016-03-26 00:11:00,1730E-3,5C000400,-0724,0835,12243,024.3,045.3,0.262,756.6,01.16,0.508
2016-03-26 00:12:00,1724E-3,5C000400,-0724,0834,12180,024.3,045.3,0.262,756.6,01.16,0.508
2016-03-26 00:13:00,1978E-3,5C000400,-0724,0834,12296,024.3,045.3,0.262,756.6,01.16,0.508
2016-03-26 00:14:00,1930E-3,5C000400,-0724,0834,12142,024.2,045.3,0.262,756.6,01.16,0.508
2016-03-26 00:15:00,1943E-3,5C000400,-0724,0834,12313,024.3,045.3,0.261,756.6,01.16,0.508
2016-03-26 00:16:00,1680E-3,5C000400,-0724,0834,12113,024.3,045.3,0.262,756.6,01.16,0.508
2016-03-26 00:17:00,1884E-3,5C000400,-0724,0835,12295,024.3,045.3,0.262,756.6,01.16,0.508
2016-03-26 00:18:00,1828E-3,5C000400,-0724,0835,12192,024.3,045.3,0.262,756.6,01.16,0.508
2016-03-26 00:19:00,1746E-3,5C000400,-0724,0834,12192,024.3,045.3,0.262,756.6,01.16,0.508
2016-03-26 00:20:00,1918E-3,5C000400,-0724,0834,12157,024.3,045.3,0.262,756.6,01.16,0.508
2016-03-26 00:21:00,1871E-3,5C000400,-0724,0834,12109,024.3,045.3,0.262,756.6,01.16,0.508
2016-03-26 00:22:00,1779E-3,5C000400,-0724,0834,12173,024.3,045.3,0.261,756.6,01.16,0.508
2016-03-26 00:23:00,1652E-3,5C000400,-0724,0833,12141,024.3,045.3,0.262,756.6,01.16,0.508
2016-03-26 00:24:00,1806E-3,5C000400,-0724,0835,12206,024.3,045.3,0.262,756.6,01.16,0.508
2016-03-26 00:25:00,1841E-3,5C000400,-0724,0835,12161,024.3,045.3,0.262,756.6,01.16,0.508
2016-03-26 00:26:00,1814E-3,5C000400,-0724,0834,12246,024.3,045.3,0.261,756.6,01.16,0.508
2016-03-26 00:27:00,1776E-3,5C000400,-0724,0834,12028,024.3,045.3,0.262,756.6,01.16,0.508
2016-03-26 00:28:00,1933E-3,5C000400,-0724,0834,12164,024.3,045.3,0.262,756.6,01.16,0.508
2016-03-26 00:29:00,1741E-3,5C000400,-0724,0835,12124,024.3,045.3,0.262,756.6,01.16,0.508
2016-03-26 00:30:00,1853E-3,5C000400,-0724,0834,12198,024.3,045.3,0.262,756.6,01.16,0.508
2016-03-26 00:31:00,1788E-3,5C000400,-0724,0834,12189,024.4,045.3,0.262,756.6,01.16,0.508
2016-03-26 00:32:00,1903E-3,5C000400,-0724,0835,12278,024.3,045.3,0.261,756.6,01.16,0.508
2016-03-26 00:33:00,2070E-3,5C000400,-0724,0834,12174,024.4,045.3,0.261,756.6,01.16,0.508
2016-03-26 00:34:00,1781E-3,5C000400,-0724,0835,12022,024.3,045.3,0.262,756.6,01.16,0.508
2016-03-26 00:35:00,1871E-3,5C000400,-0724,0834,12171,024.4,045.3,0.262,756.5,01.16,0.508
2016-03-26 00:36:00,1866E-3,5C000400,-0724,0834,12208,024.4,045.3,0.262,756.6,01.16,0.508
2016-03-26 00:37:00,1765E-3,5C000400,-0724,0834,12255,024.4,045.3,0.262,756.6,01.16,0.508
2016-03-26 00:38:00,1980E-3,5C000400,-0724,0836,12141,024.4,045.3,0.261,756.6,01.16,0.508
2016-03-26 00:39:00,1895E-3,5C000400,-0724,0834,12154,024.4,045.3,0.262,756.6,01.16,0.508
2016-03-26 00:40:00,1808E-3,5C000400,-0724,0834,12231,024.4,045.3,0.262,756.6,01.16,0.508
2016-03-26 00:41:00,1900E-3,5C000400,-0724,0835,12113,024.4,045.3,0.261,756.6,01.16,0.508
2016-03-26 00:42:00,1908E-3,5C000400,-0724,0835,12217,024.4,045.3,0.262,756.6,01.16,0.508
2016-03-26 00:43:00,1787E-3,5C000400,-0724,0834,12039,024.4,045.3,0.262,756.6,01.16,0.508
2016-03-26 00:44:00,1828E-3,5C000400,-0724,0834,12229,024.4,045.3,0.261,756.6,01.16,0.508
2016-03-26 00:45:00,1857E-3,5C000400,-0724,0835,12231,024.4,045.3,0.262,756.5,01.16,0.508
2016-03-26 00:46:00,1884E-3,5C000400,-0724,0834,12201,024.4,045.3,0.261,756.5,01.16,0.508
2016-03-26 00:47:00,1996E-3,5C000400,-0724,0835,12041,024.5,045.3,0.262,756.5,01.16,0.508
2016-03-26 00:48:00,1850E-3,5C000400,-0724,0834,12241,024.5,045.3,0.261,756.5,01.16,0.508
2016-03-26 00:49:00,1839E-3,5C000400,-0724,0835,12110,024.4,045.3,0.261,756.5,01.16,0.508
2016-03-26 00:50:00,1810E-3,5C000400,-0724,0835,12084,024.5,045.3,0.262,756.5,01.16,0.508
2016-03-26 00:51:00,1762E-3,5C000400,-0724,0835,12268,024.5,045.3,0.261,756.5,01.16,0.508
2016-03-26 00:52:00,1910E-3,5C000400,-0724,0835,12233,024.5,045.3,0.262,756.5,01.16,0.508
2016-03-26 00:53:00,1915E-3,5C000400,-0724,0835,12297,024.5,045.3,0.261,756.5,01.16,0.508
2016-03-26 00:54:00,1847E-3,5C000400,-0724,0834,12101,024.5,045.3,0.261,756.5,01.16,0.508
2016-03-26 00:55:00,1855E-3,5C000400,-0724,0833,12195,024.5,045.3,0.262,756.5,01.16,0.508
2016-03-26 00:56:00,1831E-3,5C000400,-0724,0835,12109,024.5,045.3,0.261,756.5,01.16,0.508
2016-03-26 00:57:00,1774E-3,5C000400,-0724,0835,12068,024.5,045.3,0.261,756.5,01.16,0.508
2016-03-26 00:58:00,1717E-3,5C000400,-0724,0834,11994,024.6,045.3,0.262,756.5,01.16,0.508
2016-03-26 00:59:00,1880E-3,5C000400,-0724,0835,12188,024.5,045.3,0.261,756.5,01.16,0.508
2016-03-26 01:00:00,1928E-3,5C000400,-0724,0835,12004,024.5,045.3,0.261,756.5,01.16,0.508
2016-03-26 01:01:00,1890E-3,5C000400,-0724,0834,12120,024.6,045.3,0.262,756.5,01.16,0.508
2016-03-26 01:02:00,1858E-3,5C000400,-0724,0835,12063,024.6,045.3,0.261,756.5,01.16,0.508
2016-03-26 01:03:00,1754E-3,5C000400,-0724,0835,12061,024.5,045.3,0.261,756.5,01.16,0.508
2016-03-26 01:04:00,1866E-3,5C000400,-0724,0834,12070,024.6,045.3,0.261,756.5,01.16,0.508
2016-03-26 01:05:00,1746E-3,5C000400,-0724,0835,12066,024.6,045.3,0.261,756.5,01.16,0.508
2016-03-26 01:06:00,1872E-3,5C000400,-0724,0835,12118,024.6,045.3,0.261,756.5,01.16,0.508
2016-03-26 01:07:00,1861E-3,5C000400,-0724,0834,11943,024.6,045.3,0.261,756.5,01.16,0.508
2016-03-26 01:08:00,1685E-3,5C000400,-0724,0834,12020,024.6,045.3,0.261,756.5,01.16,0.508
2016-03-26 01:09:00,1910E-3,5C000400,-0724,0834,12027,024.6,045.3,0.261,756.5,01.16,0.508
2016-03-26 01:10:00,1870E-3,5C000400,-0724,0835,12171,024.6,045.3,0.261,756.5,01.16,0.508
2016-03-26 01:11:00,1833E-3,5C000400,-0724,0834,12115,024.6,045.3,0.261,756.5,01.16,0.508
2016-03-26 01:12:00,1741E-3,5C000400,-0724,0835,12092,024.6,045.3,0.261,756.5,01.16,0.508
2016-03-26 01:13:00,1605E-3,5C000400,-0724,0835,12145,024.6,045.3,0.261,756.5,01.16,0.508
2016-03-26 01:14:00,1770E-3,5C000400,-0724,0835,12214,024.6,045.3,0.261,756.5,01.16,0.508
2016-03-26 01:15:00,1908E-3,5C000400,-0724,0835,12155,024.7,045.3,0.261,756.5,01.16,0.508
2016-03-26 01:16:00,1838E-3,5C000400,-0724,0835,12113,024.7,045.3,0.262,756.4,01.16,0.508
2016-03-26 01:17:00,1878E-3,5C000400,-0724,0834,12162,024.7,045.3,0.262,756.4,01.16,0.508
2016-03-26 01:18:00,1786E-3,5C000400,-0724,0835,12183,024.7,045.3,0.261,756.4,01.16,0.508
2016-03-26 01:19:00,1833E-3,5C000400,-0724,0834,12160,024.7,045.3,0.261,756.4,01.16,0.508
2016-03-26 01:20:00,1831E-3,5C000400,-0724,0834,11967,024.7,045.3,0.261,756.4,01.16,0.508
2016-03-26 01:21:00,1788E-3,5C000400,-0724,0835,12255,024.7,045.3,0.261,756.4,01.16,0.508
2016-03-26 01:22:00,1791E-3,5C000400,-0724,0835,12218,024.7,045.3,0.261,756.4,01.16,0.508
2016-03-26 01:23:00,1761E-3,5C000400,-0724,0834,12147,024.7,045.3,0.261,756.5,01.16,0.508
2016-03-26 01:24:00,1836E-3,5C000400,-0724,0834,12190,024.7,045.3,0.261,756.5,01.16,0.508
2016-03-26 01:25:00,1744E-3,5C000400,-0724,0834,12070,024.7,045.3,0.261,756.5,01.16,0.508
2016-03-26 01:26:00,1726E-3,5C000400,-0724,0834,12255,024.7,045.3,0.261,756.4,01.16,0.508
2016-03-26 01:27:00,1834E-3,5C000400,-0724,0834,12089,024.7,045.3,0.261,756.4,01.16,0.508
2016-03-26 01:28:00,1833E-3,5C000400,-0724,0835,12171,024.8,045.3,0.261,756.4,01.16,0.508
2016-03-26 01:29:00,1915E-3,5C000400,-0724,0835,12037,024.8,045.3,0.261,756.5,01.16,0.508
2016-03-26 01:30:00,1786E-3,5C000400,-0724,0834,12166,024.7,045.3,0.261,756.5,01.16,0.508
2016-03-26 01:31:00,1734E-3,5C000400,-0724,0834,11997,024.8,045.3,0.261,756.4,01.16,0.508
2016-03-26 01:32:00,1761E-3,5C000400,-0724,0835,12293,024.8,045.3,0.261,756.4,01.16,0.508
2016-03-26 01:33:00,1879E-3,5C000400,-0724,0834,12226,024.8,045.3,0.261,756.4,01.16,0.508
2016-03-26 01:34:00,1874E-3,5C000400,-0724,0835,12265,024.8,045.3,0.261,756.5,01.16,0.508
2016-03-26 01:35:00,1801E-3,5C000400,-0724,0835,12181,024.8,045.3,0.261,756.4,01.16,0.508
2016-03-26 01:36:00,1804E-3,5C000400,-0724,0835,12141,024.8,045.3,0.261,756.4,01.16,0.508
2016-03-26 01:37:00,1770E-3,5C000400,-0724,0834,12077,024.8,045.3,0.261,756.4,01.16,0.508
2016-03-26 01:38:00,1807E-3,5C000400,-0724,0835,12131,024.8,045.3,0.261,756.4,01.16,0.508
2016-03-26 01:39:00,1820E-3,5C000400,-0724,0834,12037,024.8,045.3,0.261,756.4,01.16,0.508
2016-03-26 01:40:00,1878E-3,5C000400,-0724,0834,12162,024.8,045.4,0.261,756.4,01.16,0.508
2016-03-26 01:41:00,1740E-3,5C000400,-0724,0834,12090,024.8,045.3,0.261,756.4,01.16,0.508
2016-03-26 01:42:00,1921E-3,5C000400,-0724,0835,12202,024.8,045.3,0.261,756.4,01.16,0.508
2016-03-26 01:43:00,1979E-3,5C000400,-0724,0834,12152,024.8,045.4,0.261,756.4,01.16,0.508
2016-03-26 01:44:00,1857E-3,5C000400,-0724,0835,12220,024.9,045.3,0.261,756.4,01.16,0.508
2016-03-26 01:45:00,1841E-3,5C000400,-0724,0834,12135,024.9,045.3,0.261,756.4,01.16,0.508
2016-03-26 01:46:00,1788E-3,5C000400,-0724,0834,12109,024.9,045.3,0.261,756.4,01.16,0.508
2016-03-26 01:47:00,1892E-3,5C000400,-0724,0834,12054,024.9,045.3,0.261,756.4,01.16,0.508
2016-03-26 01:48:00,1813E-3,5C000400,-0724,0835,12156,024.9,045.3,0.260,756.4,01.16,0.508
2016-03-26 01:49:00,1838E-3,5C000400,-0724,0834,11907,024.9,045.3,0.261,756.4,01.16,0.508
2016-03-26 01:50:00,1925E-3,5C000400,-0724,0835,12155,024.9,045.3,0.260,756.4,01.16,0.508
2016-03-26 01:51:00,1822E-3,5C000400,-0724,0835,11998,024.9,045.3,0.261,756.4,01.16,0.508
2016-03-26 01:52:00,1836E-3,5C000400,-0724,0834,12128,024.9,045.4,0.260,756.4,01.16,0.508
2016-03-26 01:53:00,1696E-3,5C000400,-0724,0835,12146,025.0,045.3,0.261,756.4,01.16,0.508
2016-03-26 01:54:00,1752E-3,5C000400,-0724,0834,12152,024.9,045.3,0.261,756.3,01.16,0.508
2016-03-26 01:55:00,1754E-3,5C000400,-0724,0834,12194,024.9,045.3,0.261,756.3,01.16,0.508
2016-03-26 01:56:00,1832E-3,5C000400,-0724,0835,12159,024.9,045.3,0.261,756.3,01.16,0.508
2016-03-26 01:57:00,1845E-3,5C000400,-0724,0834,12094,025.0,045.3,0.260,756.3,01.16,0.508
2016-03-26 01:58:00,1888E-3,5C000400,-0724,0834,11987,025.0,045.3,0.261,756.3,01.16,0.508
2016-03-26 01:59:00,1804E-3,5C000400,-0724,0834,12074,025.0,045.3,0.260,756.3,01.16,0.508
2016-03-26 02:00:00,1721E-3,5C000400,-0724,0834,12130,025.0,045.3,0.261,756.3,01.16,0.508
2016-03-26 02:01:00,1876E-3,5C000400,-0724,0834,12197,025.0,045.3,0.261,756.3,01.16,0.508
2016-03-26 02:02:00,1866E-3,5C000400,-0724,0834,12274,025.0,045.3,0.261,756.3,01.16,0.508
2016-03-26 02:03:00,1650E-3,5C000400,-0724,0835,12140,025.0,045.3,0.260,756.3,01.16,0.508
2016-03-26 02:04:00,1752E-3,5C000400,-0724,0834,12028,025.0,045.3,0.260,756.3,01.16,0.508
2016-03-26 02:05:00,1868E-3,5C000400,-0724,0835,12177,025.0,045.3,0.261,756.3,01.16,0.508
2016-03-26 02:06:00,1919E-3,5C000400,-0724,0834,12150,025.0,045.3,0.260,756.3,01.16,0.508
2016-03-26 02:07:00,1806E-3,5C000400,-0724,0835,12244,025.1,045.3,0.261,756.3,01.16,0.508
2016-03-26 02:08:00,1811E-3,5C000400,-0724,0835,12032,025.1,045.3,0.260,756.3,01.16,0.508
2016-03-26 02:09:00,1682E-3,5C000400,-0724,0835,12241,025.1,045.3,0.261,756.3,01.16,0.508
2016-03-26 02:10:00,1867E-3,5C000400,-0724,0835,12062,025.1,045.4,0.260,756.3,01.16,0.508
2016-03-26 02:11:00,1922E-3,5C000400,-0724,0834,12157,025.1,045.3,0.260,756.3,01.16,0.508
2016-03-26 02:12:00,1778E-3,5C000400,-0724,0835,12215,025.1,045.3,0.261,756.3,01.16,0.508
2016-03-26 02:13:00,1781E-3,5C000400,-0724,0835,12166,025.1,045.3,0.260,756.3,01.16,0.508
2016-03-26 02:14:00,1832E-3,5C000400,-0724,0835,12121,025.1,045.3,0.260,756.3,01.16,0.508
2016-03-26 02:15:00,1842E-3,5C000400,-0724,0835,12101,025.1,045.3,0.260,756.3,01.16,0.508
2016-03-26 02:16:00,1858E-3,5C000400,-0724,0834,12068,025.1,045.3,0.260,756.3,01.16,0.508
2016-03-26 02:17:00,1866E-3,5C000400,-0724,0835,12186,025.1,045.3,0.261,756.3,01.16,0.508
2016-03-26 02:18:00,1874E-3,5C000400,-0724,0834,12127,025.2,045.3,0.261,756.3,01.16,0.508
2016-03-26 02:19:00,1802E-3,5C000400,-0724,0834,12164,025.2,045.3,0.260,756.3,01.16,0.508
2016-03-26 02:20:00,1813E-3,5C000400,-0724,0834,12131,025.2,045.3,0.260,756.3,01.16,0.508
2016-03-26 02:21:00,1774E-3,5C000400,-0724,0834,12212,025.2,045.3,0.260,756.3,01.16,0.508
2016-03-26 02:22:00,1800E-3,5C000400,-0724,0834,12238,025.2,045.3,0.260,756.3,01.16,0.508
2016-03-26 02:23:00,1886E-3,5C000400,-0724,0835,12157,025.2,045.3,0.260,756.3,01.16,0.508
2016-03-26 02:24:00,1836E-3,5C000400,-0724,0834,11885,025.2,045.3,0.260,756.3,01.16,0.508
2016-03-26 02:25:00,1833E-3,5C000400,-0724,0834,12102,025.2,045.3,0.260,756.2,01.16,0.508
2016-03-26 02:26:00,2048E-3,5C000400,-0724,0835,12111,025.3,045.3,0.260,756.3,01.16,0.508
2016-03-26 02:27:00,1916E-3,5C000400,-0724,0835,12107,025.3,045.3,0.260,756.2,01.16,0.508
2016-03-26 02:28:00,1859E-3,5C000400,-0724,0835,12162,025.3,045.4,0.260,756.2,01.16,0.508
2016-03-26 02:29:00,1817E-3,5C000400,-0724,0834,12082,025.3,045.4,0.260,756.2,01.16,0.508
2016-03-26 02:30:00,1892E-3,5C000400,-0724,0835,12167,025.3,045.4,0.260,756.2,01.16,0.508
2016-03-26 02:31:00,1745E-3,5C000400,-0724,0835,12237,025.3,045.3,0.260,756.2,01.16,0.508
2016-03-26 02:32:00,1754E-3,5C000400,-0724,0835,12098,025.3,045.3,0.260,756.2,01.16,0.508
2016-03-26 02:33:00,1852E-3,5C000400,-0724,0834,12232,025.3,045.3,0.260,756.2,01.16,0.508
2016-03-26 02:34:00,1736E-3,5C000400,-0724,0834,12144,025.3,045.4,0.260,756.2,01.16,0.508
2016-03-26 02:35:00,1839E-3,5C000400,-0724,0835,12190,025.3,045.4,0.260,756.2,01.16,0.508
2016-03-26 02:36:00,1831E-3,5C000400,-0724,0835,12141,025.3,045.3,0.260,756.2,01.16,0.508
2016-03-26 02:37:00,1770E-3,5C000400,-0724,0835,12137,025.3,045.3,0.260,756.2,01.16,0.508
2016-03-26 02:38:00,1910E-3,5C000400,-0724,0835,12174,025.4,045.3,0.260,756.2,01.16,0.508
2016-03-26 02:39:00,1860E-3,5C000400,-0724,0835,12242,025.3,045.3,0.260,756.2,01.16,0.508
2016-03-26 02:40:00,1846E-3,5C000400,-0724,0835,12237,025.4,045.3,0.260,756.2,01.16,0.508
2016-03-26 02:41:00,1845E-3,5C000400,-0724,0835,12113,025.4,045.3,0.260,756.2,01.16,0.508
2016-03-26 02:42:00,1833E-3,5C000400,-0724,0835,12151,025.4,045.3,0.260,756.2,01.16,0.508
2016-03-26 02:43:00,1910E-3,5C000400,-0724,0835,12113,025.4,045.3,0.260,756.2,01.16,0.508
2016-03-26 02:44:00,1885E-3,5C000400,-0724,0835,12134,025.4,045.3,0.260,756.2,01.16,0.508
2016-03-26 02:45:00,1839E-3,5C000400,-0724,0835,12109,025.4,045.3,0.260,756.2,01.16,0.508
2016-03-26 02:46:00,1751E-3,5C000400,-0724,0834,12234,025.4,045.3,0.260,756.2,01.16,0.508
2016-03-26 02:47:00,1834E-3,5C000400,-0724,0835,12185,025.4,045.3,0.260,756.2,01.16,0.508
2016-03-26 02:48:00,1825E-3,5C000400,-0724,0835,11991,025.4,045.4,0.260,756.1,01.16,0.508
2016-03-26 02:49:00,1817E-3,5C000400,-0724,0835,12093,025.5,045.3,0.260,756.1,01.16,0.508
2016-03-26 02:50:00,1716E-3,5C000400,-0724,0835,12125,025.5,045.4,0.260,756.2,01.16,0.508
2016-03-26 02:51:00,1812E-3,5C000400,-0724,0835,12045,025.5,045.4,0.259,756.2,01.16,0.508
2016-03-26 02:52:00,1839E-3,5C000400,-0724,0836,12177,025.5,045.3,0.260,756.2,01.16,0.508
2016-03-26 02:53:00,1877E-3,5C000400,-0724,0836,12286,025.5,045.3,0.259,756.2,01.16,0.508
2016-03-26 02:54:00,1838E-3,5C000400,-0724,0836,12184,025.5,045.4,0.260,756.1,01.16,0.508
2016-03-26 02:55:00,1864E-3,5C000400,-0724,0835,12196,025.5,045.3,0.259,756.2,01.16,0.508
2016-03-26 02:56:00,1820E-3,5C000400,-0724,0835,12172,025.6,045.3,0.260,756.1,01.16,0.508
2016-03-26 02:57:00,1828E-3,5C000400,-0724,0835,12175,025.5,045.3,0.259,756.1,01.16,0.508
2016-03-26 02:58:00,1872E-3,5C000400,-0724,0836,12015,025.6,045.4,0.260,756.1,01.16,0.508
2016-03-26 02:59:00,1861E-3,5C000400,-0724,0835,12030,025.6,045.4,0.259,756.2,01.16,0.508
2016-03-26 03:00:00,1706E-3,5C000400,-0724,0835,12222,025.6,045.3,0.260,756.2,01.16,0.508
2016-03-26 03:01:00,1892E-3,5C000400,-0724,0836,12124,025.6,045.3,0.259,756.2,01.16,0.508
2016-03-26 03:02:00,1863E-3,5C000400,-0724,0835,12092,025.6,045.3,0.260,756.2,01.16,0.508
2016-03-26 03:03:00,1731E-3,5C000400,-0724,0836,12239,025.6,045.4,0.259,756.2,01.16,0.508
2016-03-26 03:04:00,1861E-3,5C000400,-0724,0835,12160,025.6,045.3,0.260,756.2,01.16,0.508
2016-03-26 03:05:00,1725E-3,5C000400,-0724,0835,12162,025.6,045.3,0.259,756.2,01.16,0.508
2016-03-26 03:06:00,1842E-3,5C000400,-0724,0836,12262,025.6,045.4,0.260,756.2,01.16,0.508
2016-03-26 03:07:00,1713E-3,5C000400,-0724,0835,12210,025.6,045.3,0.259,756.1,01.16,0.508
2016-03-26 03:08:00,1978E-3,5C000400,-0724,0834,12217,025.6,045.3,0.260,756.1,01.16,0.508
2016-03-26 03:09:00,1847E-3,5C000400,-0724,0835,12218,025.7,045.3,0.259,756.1,01.16,0.508
2016-03-26 03:10:00,1775E-3,5C000400,-0724,0835,12189,025.7,045.3,0.260,756.1,01.16,0.508
2016-03-26 03:11:00,1899E-3,5C000400,-0724,0834,12117,025.7,045.3,0.259,756.1,01.16,0.508
2016-03-26 03:12:00,1943E-3,5C000400,-0724,0835,12132,025.7,045.3,0.260,756.1,01.16,0.508
2016-03-26 03:13:00,1875E-3,5C000400,-0724,0835,12152,025.7,045.3,0.259,756.1,01.16,0.508
2016-03-26 03:14:00,1848E-3,5C000400,-0724,0835,12168,025.7,045.4,0.260,756.2,01.16,0.508
2016-03-26 03:15:00,1826E-3,5C000400,-0724,0834,12257,025.7,045.3,0.259,756.1,01.16,0.508
2016-03-26 03:16:00,1886E-3,5C000400,-0724,0835,12073,025.7,045.3,0.260,756.1,01.16,0.508
2016-03-26 03:17:00,1775E-3,5C000400,-0724,0835,12163,025.7,045.4,0.259,756.1,01.16,0.508
2016-03-26 03:18:00,1814E-3,5C000400,-0724,0835,12047,025.7,045.4,0.260,756.0,01.16,0.508
2016-03-26 03:19:00,1749E-3,5C000400,-0724,0835,12131,025.7,045.4,0.259,756.1,01.16,0.508
2016-03-26 03:20:00,1773E-3,5C000400,-0724,0835,12144,025.7,045.4,0.259,756.1,01.16,0.508
2016-03-26 03:21:00,1880E-3,5C000400,-0724,0835,12214,025.8,045.4,0.259,756.0,01.16,0.508
2016-03-26 03:22:00,1662E-3,5C000400,-0724,0835,12138,025.8,045.3,0.259,756.1,01.16,0.508
2016-03-26 03:23:00,1776E-3,5C000400,-0724,0835,12194,025.8,045.4,0.259,756.1,01.16,0.508
2016-03-26 03:24:00,1859E-3,5C000400,-0724,0836,12130,025.8,045.3,0.259,756.1,01.16,0.508
2016-03-26 03:25:00,1762E-3,5C000400,-0724,0835,12126,025.8,045.3,0.259,756.1,01.16,0.508
2016-03-26 03:26:00,1813E-3,5C000400,-0724,0835,12261,025.8,045.4,0.259,756.1,01.16,0.508
2016-03-26 03:27:00,1936E-3,5C000400,-0724,0835,12194,025.8,045.4,0.259,756.1,01.16,0.508
2016-03-26 03:28:00,1953E-3,5C000400,-0724,0834,12219,025.9,045.4,0.259,756.1,01.16,0.508
2016-03-26 03:29:00,1733E-3,5C000400,-0724,0835,12133,025.9,045.4,0.259,756.1,01.16,0.508
2016-03-26 03:30:00,1852E-3,5C000400,-0724,0834,12169,025.9,045.4,0.259,756.1,01.16,0.508
2016-03-26 03:31:00,1826E-3,5C000400,-0724,0835,12126,025.9,045.4,0.259,756.1,01.16,0.508
2016-03-26 03:32:00,1876E-3,5C000400,-0724,0834,12026,025.9,045.4,0.259,756.1,01.16,0.508
2016-03-26 03:33:00,1859E-3,5C000400,-0724,0835,12179,025.9,045.4,0.259,756.1,01.16,0.508
2016-03-26 03:34:00,1779E-3,5C000400,-0724,0835,12232,025.9,045.4,0.259,756.1,01.16,0.508
2016-03-26 03:35:00,1843E-3,5C000400,-0724,0835,12255,025.9,045.4,0.259,756.1,01.16,0.508
2016-03-26 03:36:00,1846E-3,5C000400,-0724,0836,12111,025.9,045.3,0.259,756.1,01.16,0.508
2016-03-26 03:37:00,1817E-3,5C000400,-0724,0835,12292,025.9,045.3,0.259,756.1,01.16,0.508
2016-03-26 03:38:00,1786E-3,5C000400,-0724,0834,12313,025.9,045.4,0.259,756.1,01.16,0.508
2016-03-26 03:39:00,1877E-3,5C000400,-0724,0835,12333,026.0,045.3,0.259,756.1,01.16,0.508
2016-03-26 03:40:00,1728E-3,5C000400,-0724,0834,12201,026.0,045.4,0.259,756.1,01.16,0.508
2016-03-26 03:41:00,1806E-3,5C000400,-0724,0835,12046,026.0,045.4,0.259,756.1,01.16,0.508
2016-03-26 03:42:00,1783E-3,5C000400,-0724,0836,12300,026.0,045.4,0.259,756.1,01.16,0.508
2016-03-26 03:43:00,1865E-3,5C000400,-0724,0835,12172,026.0,045.4,0.259,756.1,01.16,0.508
2016-03-26 03:44:00,1963E-3,5C000400,-0724,0835,12089,026.0,045.4,0.259,756.1,01.16,0.508
2016-03-26 03:45:00,1844E-3,5C000400,-0724,0835,12159,026.0,045.4,0.259,756.1,01.16,0.508
2016-03-26 03:46:00,1724E-3,5C000400,-0724,0835,12109,026.0,045.3,0.258,756.1,01.16,0.508
2016-03-26 03:47:00,1866E-3,5C000400,-0724,0835,12253,026.0,045.4,0.259,756.1,01.16,0.508
2016-03-26 03:48:00,1871E-3,5C000400,-0724,0834,12030,026.0,045.4,0.259,756.1,01.16,0.508
2016-03-26 03:49:00,1868E-3,5C000400,-0724,0835,12066,026.1,045.4,0.259,756.1,01.16,0.508
2016-03-26 03:50:00,1875E-3,5C000400,-0724,0836,12133,025.9,045.4,0.259,756.1,01.16,0.508
2016-03-26 03:51:00,1911E-3,5C000400,-0724,0835,12181,025.7,045.3,0.259,756.2,01.16,0.508
2016-03-26 03:52:00,1844E-3,5C000400,-0724,0835,12170,025.6,045.3,0.259,756.2,01.16,0.508
2016-03-26 03:53:00,1900E-3,5C000400,-0724,0836,12111,025.7,045.3,0.259,756.2,01.16,0.508
2016-03-26 03:54:00,1925E-3,5C000400,-0724,0835,12249,025.7,045.3,0.259,756.2,01.16,0.508
2016-03-26 03:55:00,1924E-3,5C000400,-0724,0835,12160,025.7,045.4,0.259,756.1,01.16,0.508
2016-03-26 03:56:00,1791E-3,5C000400,-0724,0835,12100,025.7,045.4,0.259,756.1,01.16,0.508
2016-03-26 03:57:00,1774E-3,5C000400,-0724,0837,12304,025.7,045.3,0.259,756.1,01.16,0.508
2016-03-26 03:58:00,1742E-3,5C000400,-0724,0835,12127,025.7,045.4,0.259,756.1,01.16,0.508
2016-03-26 03:59:00,1892E-3,5C000400,-0724,0835,12161,025.8,045.4,0.259,756.1,01.16,0.508
2016-03-26 04:00:00,1735E-3,5C000400,-0724,0835,12192,025.8,045.4,0.259,756.1,01.16,0.508
2016-03-26 04:01:00,1830E-3,5C000400,-0724,0835,12193,025.8,045.4,0.259,756.1,01.16,0.508
2016-03-26 04:02:00,1875E-3,5C000400,-0724,0834,12126,025.8,045.4,0.259,756.1,01.16,0.508
2016-03-26 04:03:00,1912E-3,5C000400,-0724,0835,12081,025.9,045.3,0.259,756.1,01.16,0.508
2016-03-26 04:04:00,1799E-3,5C000400,-0724,0835,12129,025.9,045.4,0.259,756.1,01.16,0.508
2016-03-26 04:05:00,1871E-3,5C000400,-0724,0835,11868,025.9,045.4,0.259,756.1,01.16,0.508
2016-03-26 04:06:00,1837E-3,5C000400,-0724,0834,12179,026.0,045.3,0.259,756.1,01.16,0.508
2016-03-26 04:07:00,1913E-3,5C000400,-0724,0835,12183,026.0,045.3,0.259,756.1,01.16,0.508
2016-03-26 04:08:00,1850E-3,5C000400,-0724,0835,12207,026.0,045.3,0.259,756.1,01.16,0.508
2016-03-26 04:09:00,1985E-3,5C000400,-0724,0835,12185,026.0,045.4,0.259,756.1,01.16,0.508
2016-03-26 04:10:00,1832E-3,5C000400,-0724,0834,12066,026.1,045.3,0.259,756.1,01.16,0.508
2016-03-26 04:11:00,1822E-3,5C000400,-0724,0835,12179,026.1,045.4,0.259,756.1,01.16,0.508
2016-03-26 04:12:00,1707E-3,5C000400,-0724,0835,12225,026.1,045.4,0.259,756.1,01.16,0.508
2016-03-26 04:13:00,1866E-3,5C000400,-0724,0835,12075,026.1,045.3,0.259,756.1,01.16,0.508
2016-03-26 04:14:00,1766E-3,5C000400,-0724,0835,12143,026.1,045.4,0.259,756.1,01.16,0.508
2016-03-26 04:15:00,1792E-3,5C000400,-0724,0835,12222,026.2,045.4,0.259,756.1,01.16,0.508
2016-03-26 04:16:00,1764E-3,5C000400,-0724,0834,12132,026.2,045.4,0.259,756.1,01.16,0.508
2016-03-26 04:17:00,1747E-3,5C000400,-0724,0835,12044,026.2,045.4,0.259,756.1,01.16,0.508
2016-03-26 04:18:00,2023E-3,5C000400,-0724,0835,12083,026.3,045.4,0.259,756.0,01.16,0.508
2016-03-26 04:19:00,1837E-3,5C000400,-0724,0835,12182,026.3,045.4,0.258,756.1,01.16,0.508
2016-03-26 04:20:00,1852E-3,5C000400,-0724,0836,12296,026.3,045.4,0.259,756.1,01.16,0.508